Showing default

BEIDOU 3M1, 43001

Orbit data source: Space-Track

BEIDOU 3M1, 43001 is a payload satellite owned by CNSA (CN) in MEO that was launched on Sun, 05 Nov 2017 UTC via a CHANG ZHENG 3B/YZ-1 launch vehicle from the Xichang Space Center, China (XSC). Payload-class satellites include a variety of spacecraft equipped with specific instruments for various scientific and technological missions. These include communications satellites like Starlink; space stations such as the ISS; scientific satellites like the Hubble; Earth observation satellites from companies like Planet Labs, Umbra, and HawkEye 360; GPS; miniature CubeSats for education and research; and military/defense satellites.

Loading next visibility...
Identifier
43001, 2017-069A
Orbit
MEO
Country
Flag of CNCN / PRC
Related business
Manufacturer
CAST
Mission
Operational Defense Navigation
Bus & Motor
BD-3M, Unknown motor
Mass
1,014 kg wet, ~850 kg dry
Launch date (UTC)
2017-11-05 (9 years ago)
Launch vehicle
CHANG ZHENG 3B/YZ-1
Launch site
Xichang Space Center, China (XSC)
Object type
Payload
Rocket body
Debris
Shape & HBR
Box + 2 Pan, 5.0 m
Radar Cross Section
8.984 m², Large (>1 m²)

Expand to show TLE details & history
Last TLE update: 2 days ago

TLE from 2 days ago
0 BEIDOU 3M1
1 43001U 17069A   26171.89173509 -.00000077  00000-0  00000+0 0  9994
2 43001  56.6960  62.9620 0010382 325.8146  34.1572  1.86231151 58676
Epoch: 2026-06-20T21:24Z
TLE epoch observation values (Epoch: 2026-06-20T21:24:05.911Z)
Latitude
-0.00001°
Longitude
-167.14719°
Altitude
21,504.406 km
Speed
3.783 km/s
True Right ascension
04h 11m 54s
True Declination
0° 00' 00"
Sunlit
Object was in daylight at epoch
Visualization orbit readout
Latitude
Unknown
Longitude
Unknown
Altitude
Unknown
Speed
Unknown
Apparent Right ascension
Unknown
Apparent Declination
Unknown
Sunlit
N/A
Visualization observer readout
Local Sidereal Time
21:32:31
Azimuth
Unknown
Elevation
Unknown
Doppler factor
Unknown
Orbital elements
Apogee altitude
21,556.95 km
Perigee altitude
21,499.006 km
Semi-major axis
27,906.115 km
Eccentricity
0.00104
Inclination
56.696°
RAAN
62.962°
Arg. of periapsis
325.8146°
True anomaly
34.22407°
Mean anomaly
34.1572°
Eccentric anomaly
34.19063°
Mean motion
0.46558 °/min
Orbital period
773.23 mins
BSTAR
0
Loading maneuver chart data...
Computing Atmospheric mass density...
Loading historical data...
Loading historical data...
Loading historical data...
Loading historical data...
Loading historical data...
Loading historical data...
Loading historical data...
Other satellites on launch #69 in the year 2017 (2017-11-05 UTC)

Documentation

Showing up to 5 results
|